Weather History for KBLI - August, 2013

Change the Weather History Date:

Tuesday, August 27, 2013

  Actual Average Record
Temperature  
Mean Temperature 69 °F 61 °F  
Max Temperature 77 °F 71 °F 85 °F (1994)
Min Temperature 60 °F 52 °F 41 °F (1954)
Degree Days  
Heating Degree Days 0 4  
Month to date heating degree days 23 64  
Since 1 June heating degree days 199 366  
Cooling Degree Days 4 0  
Month to date cooling degree days 30 0  
Year to date cooling degree days 79 23  
Since 1 June cooling degree days 79 23  
Growing Degree Days 18 (Base 50)    
Moisture  
Dew Point 57 °F    
Average Humidity 72    
Maximum Humidity 90    
Minimum Humidity 53    
Precipitation  
Precipitation 0.10 in 0.05 in 0.83 in (1991)
Month to date precipitation 0.64 1.03  
Year to date precipitation 15.55 20.15  
Sea Level Pressure  
Sea Level Pressure 29.89 in    
Wind  
Wind Speed 3 mph (SSW)    
Max Wind Speed 14 mph    
Max Gust Speed 20 mph    
Visibility 10 miles    
Events Rain    
T = Trace of Precipitation, MM = Missing Value Source: NWS Daily Summary

Daily Weather History Graph

Daily Weather History Graph

Search for Another Location

Airport or City:

Trip Planner

Search our weather history database for the weather conditions in past years. The results will help you decide how hot, cold, wet, or windy it might be!

Date:

Astronomy

Aug. 27, 2013 Rise Set
Actual Time 6:20 AM PDT 8:01 PM PDT
Civil Twilight 5:47 AM PDT 8:34 PM PDT
Nautical Twilight 5:06 AM PDT 9:15 PM PDT
Astronomical Twilight 4:21 AM PDT 9:59 PM PDT
Moon 11:20 PM PDT (8/27) 2:01 PM PDT (8/27)
Length of Visible Light 14h 47m
Length of Day
13h 41m
Waning Gibbous, 56% of the Moon is Illuminated
Aug 27
Waning Gibbous
Aug 28
Last Quarter
Sep 5
New
Sep 12
First Quarter
Sep 19
Full

Hourly Weather History & Observations

Time (PDT) Temp. Dew Point Humidity Pressure Visibility Wind Dir Wind Speed Gust Speed Precip Events Conditions
12:53 AM 64.0 °F 55.0 °F 73% 29.94 in 10.0 mi SSE 12.7 mph 21.9 mph N/A   Clear
1:53 AM 64.0 °F 55.9 °F 75% 29.95 in 10.0 mi South 8.1 mph - N/A   Clear
2:53 AM 64.0 °F 55.9 °F 75% 29.94 in 10.0 mi Calm Calm - N/A   Clear
3:53 AM 63.0 °F 55.9 °F 78% 29.92 in 10.0 mi Variable 3.5 mph - N/A   Clear
4:53 AM 64.0 °F 55.0 °F 73% 29.93 in 10.0 mi SSE 6.9 mph - N/A   Partly Cloudy
5:53 AM 61.0 °F 55.0 °F 81% 29.93 in 10.0 mi Calm Calm - N/A   Partly Cloudy
6:53 AM 62.1 °F 55.9 °F 80% 29.94 in 10.0 mi ENE 3.5 mph - N/A   Overcast
7:53 AM 64.9 °F 55.9 °F 73% 29.95 in 10.0 mi Calm Calm - N/A   Overcast
8:53 AM 66.9 °F 55.9 °F 68% 29.94 in 10.0 mi Variable 3.5 mph - N/A   Mostly Cloudy
9:09 AM 66.2 °F 55.4 °F 68% 29.93 in 10.0 mi Calm Calm - N/A   Mostly Cloudy
9:44 AM 68.0 °F 55.4 °F 64% 29.92 in 10.0 mi Variable 6.9 mph - N/A   Mostly Cloudy
9:53 AM 68.0 °F 55.9 °F 65% 29.94 in 10.0 mi SSE 6.9 mph - N/A   Mostly Cloudy
10:53 AM 68.0 °F 57.0 °F 68% 29.94 in 10.0 mi SSW 3.5 mph - N/A   Mostly Cloudy
11:53 AM 69.1 °F 57.0 °F 65% 29.92 in 10.0 mi Calm Calm - N/A   Scattered Clouds
12:53 PM 71.1 °F 55.9 °F 59% 29.91 in 10.0 mi Calm Calm - N/A   Clear
1:53 PM 73.0 °F 55.9 °F 55% 29.90 in 10.0 mi Variable 5.8 mph - N/A   Scattered Clouds
2:53 PM 73.0 °F 55.9 °F 55% 29.88 in 10.0 mi Variable 3.5 mph - N/A   Clear
3:53 PM 75.0 °F 57.0 °F 53% 29.87 in 10.0 mi NNE 4.6 mph - N/A   Clear
4:53 PM 75.9 °F 57.0 °F 52% 29.85 in 10.0 mi Calm Calm - N/A   Mostly Cloudy
5:53 PM 73.0 °F 57.9 °F 59% 29.84 in 10.0 mi WNW 3.5 mph - N/A   Partly Cloudy
6:53 PM 70.0 °F 57.0 °F 63% 29.82 in 10.0 mi West 4.6 mph - N/A   Mostly Cloudy
7:53 PM 64.9 °F 57.9 °F 78% 29.82 in 10.0 mi West 6.9 mph - 0.00 in   Overcast
8:53 PM 64.0 °F 59.0 °F 84% 29.82 in 10.0 mi SSW 3.5 mph - N/A   Overcast
9:53 PM 62.1 °F 59.0 °F 90% 29.85 in 5.0 mi SSW 4.6 mph - 0.04 in Rain Light Rain
10:53 PM 61.0 °F 57.9 °F 90% 29.88 in 10.0 mi Variable 3.5 mph - 0.04 in Rain Light Rain
11:04 PM 60.8 °F 57.2 °F 88% 29.85 in 10.0 mi Calm Calm - 0.00 in   Overcast
11:16 PM 60.8 °F 57.2 °F 88% 29.86 in 10.0 mi Calm Calm - 0.00 in Rain Light Rain
11:23 PM 60.8 °F 57.2 °F 88% 29.85 in 9.0 mi Calm Calm - 0.00 in Rain Light Rain
11:31 PM 60.8 °F 57.2 °F 88% 29.86 in 8.0 mi Calm Calm - 0.00 in Rain Light Rain
11:53 PM 61.0 °F 57.9 °F 90% 29.87 in 9.0 mi Calm Calm - 0.01 in Rain Light Rain